Weather History for Gaylord, MI

Change the Weather History Date:

Wednesday, March 20, 2013

  Actual Average Record
Temperature  
Mean Temperature 19 °F -  
Max Temperature 21 °F 39 °F 80 °F (2012)
Min Temperature 17 °F 20 °F -10 °F (1986)
Degree Days  
Heating Degree Days 46    
Moisture  
Dew Point 15 °F    
Average Humidity 82    
Maximum Humidity 93    
Minimum Humidity 58    
Precipitation  
Precipitation 0.03 in - - ()
Sea Level Pressure  
Sea Level Pressure 29.79 in    
Wind  
Wind Speed 10 mph (West)    
Max Wind Speed 17 mph    
Max Gust Speed 24 mph    
Visibility 3 miles    
Events Fog , Snow    
Averages and records for this station are not official NWS values.
T = Trace of Precipitation, MM = Missing Value Source: NWS Daily Summary

Daily Weather History Graph

Daily Weather History Graph

Search for Another Location

Airport:

Trip Planner

Search our weather history database for the weather conditions in past years. The results will help you decide how hot, cold, wet, or windy it might be!

Date:

Astronomy

Mar. 20, 2013 Rise Set
Actual Time 7:41 AM EDT 7:51 PM EDT
Civil Twilight 7:12 AM EDT 8:20 PM EDT
Nautical Twilight 6:37 AM EDT 8:55 PM EDT
Astronomical Twilight 6:02 AM EDT 9:30 PM EDT
Moon 1:11 PM EDT (3/20) 3:34 AM EDT (3/20)
Length of Visible Light 13h 08m
Length of Day
12h 10m
First Quarter, 59% of the Moon is Illuminated
Mar 20
First Quarter
Mar 27
Full
Apr 3
Last Quarter
Apr 10
New
Apr 18
First Quarter

Hourly Weather History & Observations

Time (EDT) Temp. Windchill Dew Point Humidity Pressure Visibility Wind Dir Wind Speed Gust Speed Precip Events Conditions
12:25 AM 19.4 °F 9.5 °F 17.6 °F 93% 29.76 in 1.8 mi West 8.1 mph - 0.00 in Snow Light Snow
12:32 AM 19.4 °F 8.6 °F 17.6 °F 93% 29.76 in 2.5 mi West 9.2 mph - 0.00 in Snow Light Snow
12:42 AM 19.4 °F 9.5 °F 17.6 °F 93% 29.75 in 1.2 mi West 8.1 mph - 0.00 in Snow Light Snow
12:53 AM 19.9 °F 10.1 °F 17.1 °F 89% 29.82 in 2.0 mi WNW 8.1 mph - 0.00 in Snow Light Snow
1:15 AM 19.4 °F 10.4 °F 17.6 °F 93% 29.75 in 3.0 mi West 6.9 mph - 0.00 in Snow Light Snow
1:22 AM 19.4 °F 10.4 °F 17.6 °F 93% 29.75 in 1.8 mi West 6.9 mph - 0.00 in Snow Light Snow
2:05 AM 19.4 °F 8.6 °F 15.8 °F 86% 29.75 in 3.0 mi West 9.2 mph - 0.00 in Snow Light Snow
2:53 AM 19.9 °F 12.1 °F 14.0 °F 78% 29.82 in 10.0 mi West 5.8 mph - 0.00 in   Overcast
3:53 AM 19.0 °F 11.1 °F 10.9 °F 71% 29.82 in 10.0 mi West 5.8 mph - 0.00 in   Partly Cloudy
4:53 AM 19.0 °F 10.0 °F 12.0 °F 74% 29.81 in 10.0 mi West 6.9 mph - N/A   Overcast
5:38 AM 17.6 °F 8.2 °F 14.0 °F 86% 29.74 in 3.0 mi West 6.9 mph - 0.00 in Snow Light Snow
5:53 AM 18.0 °F 7.7 °F 14.0 °F 84% 29.81 in 5.0 mi West 8.1 mph - 0.00 in Snow Light Snow
6:15 AM 17.6 °F 9.3 °F 15.8 °F 93% 29.75 in 2.5 mi West 5.8 mph - 0.00 in Snow Light Snow
6:23 AM 17.6 °F 8.2 °F 15.8 °F 93% 29.75 in 3.0 mi West 6.9 mph - 0.00 in Snow Light Snow
6:33 AM 17.6 °F 9.3 °F 15.8 °F 93% 29.75 in 1.8 mi West 5.8 mph - 0.00 in Snow Light Snow
6:53 AM 18.0 °F 6.9 °F 15.1 °F 88% 29.82 in 3.0 mi West 9.2 mph - 0.01 in Snow Light Snow
7:20 AM 17.6 °F 6.4 °F 14.0 °F 86% 29.75 in 2.0 mi West 9.2 mph - 0.00 in Snow Light Snow
7:32 AM 17.6 °F 7.3 °F 12.2 °F 79% 29.75 in 4.0 mi WNW 8.1 mph - 0.00 in Snow Light Snow
7:44 AM 17.6 °F 5.7 °F 12.2 °F 79% 29.76 in 1.8 mi WNW 10.4 mph 18.4 mph 0.00 in Snow Light Snow
7:53 AM 17.1 °F 5.8 °F 12.9 °F 84% 29.82 in 1.2 mi West 9.2 mph 17.3 mph 0.00 in Snow Light Snow
8:23 AM 17.6 °F 7.3 °F 12.2 °F 79% 29.76 in 2.5 mi West 8.1 mph - 0.00 in Snow Light Snow
8:46 AM 17.6 °F 7.3 °F 12.2 °F 79% 29.75 in 5.0 mi WNW 8.1 mph - 0.00 in   Overcast
8:53 AM 17.1 °F 5.0 °F 12.9 °F 84% 29.82 in 7.0 mi West 10.4 mph - 0.00 in   Mostly Cloudy
9:05 AM 17.6 °F 6.4 °F 12.2 °F 79% 29.76 in 10.0 mi West 9.2 mph - N/A   Scattered Clouds
9:53 AM 19.0 °F 7.5 °F 9.0 °F 65% 29.81 in 10.0 mi West 10.4 mph 20.7 mph N/A   Partly Cloudy
10:53 AM 19.9 °F 6.7 °F 10.0 °F 65% 29.82 in 9.0 mi West 13.8 mph 18.4 mph 0.00 in   Overcast
11:05 AM 19.4 °F 7.9 °F 10.4 °F 68% 29.76 in 1.5 mi West 10.4 mph 19.6 mph 0.00 in Snow Light Snow
11:14 AM 17.6 °F 8.2 °F 12.2 °F 79% 29.76 in 0.5 mi West 6.9 mph 18.4 mph 0.00 in Snow Snow
11:22 AM 19.4 °F 10.4 °F 12.2 °F 74% 29.76 in 2.5 mi Variable 6.9 mph 16.1 mph 0.00 in Snow Light Snow
11:29 AM 19.4 °F 6.6 °F 8.6 °F 63% 29.77 in 9.0 mi WNW 12.7 mph 21.9 mph 0.00 in   Overcast
11:45 AM 21.2 °F 9.5 °F 8.6 °F 58% 29.76 in 10.0 mi West 11.5 mph 17.3 mph 0.00 in   Overcast
11:53 AM 19.9 °F 6.7 °F 10.0 °F 65% 29.83 in 7.0 mi West 13.8 mph 21.9 mph 0.00 in   Overcast
12:07 PM 19.4 °F 7.9 °F 10.4 °F 68% 29.77 in 2.0 mi West 10.4 mph 20.7 mph 0.00 in Snow Light Snow
12:24 PM 19.4 °F 7.2 °F 12.2 °F 74% 29.77 in 4.0 mi West 11.5 mph - 0.00 in Snow Light Snow
12:32 PM 19.4 °F 8.6 °F 12.2 °F 74% 29.77 in 2.5 mi West 9.2 mph 17.3 mph 0.00 in Snow Light Snow
12:42 PM 19.4 °F 8.6 °F 12.2 °F 74% 29.77 in 3.0 mi West 9.2 mph 17.3 mph 0.00 in Snow Light Snow
12:53 PM 19.9 °F 6.7 °F 12.9 °F 74% 29.84 in 9.0 mi West 13.8 mph 18.4 mph 0.00 in   Overcast
1:06 PM 19.4 °F 5.5 °F 12.2 °F 74% 29.77 in 1.8 mi West 15.0 mph 19.6 mph 0.00 in Snow Light Snow
1:15 PM 19.4 °F 7.2 °F 14.0 °F 80% 29.77 in 0.8 mi West 11.5 mph 19.6 mph 0.00 in Snow Light Snow
1:23 PM 21.2 °F 10.1 °F 15.8 °F 80% 29.77 in 1.5 mi West 10.4 mph - 0.00 in Snow Light Snow
1:28 PM 21.2 °F 9.5 °F 12.2 °F 68% 29.77 in 3.0 mi West 11.5 mph 18.4 mph 0.00 in Snow Light Snow
1:36 PM 19.4 °F 6.6 °F 15.8 °F 86% 29.77 in 1.8 mi West 12.7 mph - 0.00 in Snow Light Snow
1:51 PM 21.2 °F 9.5 °F 15.8 °F 80% 29.77 in 3.0 mi West 11.5 mph 19.6 mph 0.00 in Snow Light Snow
1:53 PM 21.0 °F 8.6 °F 15.1 °F 78% 29.83 in 3.0 mi West 12.7 mph 19.6 mph 0.00 in Snow Light Snow
2:10 PM 21.2 °F 8.3 °F 15.8 °F 80% 29.77 in 10.0 mi West 13.8 mph - 0.00 in   Overcast
2:23 PM 21.2 °F 7.3 °F 15.8 °F 80% 29.77 in 2.5 mi West 16.1 mph 21.9 mph 0.00 in Snow Light Snow
2:30 PM 21.2 °F 8.3 °F 14.0 °F 74% 29.77 in 1.2 mi West 13.8 mph 21.9 mph 0.00 in Snow Light Snow
2:38 PM 19.4 °F 5.0 °F 15.8 °F 86% 29.77 in 0.2 mi West 16.1 mph 24.2 mph 0.00 in Fog , Snow Snow
2:49 PM 21.2 °F 8.9 °F 17.6 °F 86% 29.77 in 0.5 mi West 12.7 mph 19.6 mph 0.00 in Fog , Snow Light Snow
2:53 PM 21.0 °F 8.1 °F 16.0 °F 81% 29.83 in 2.5 mi West 13.8 mph 20.7 mph 0.00 in Snow Light Snow
2:56 PM 21.2 °F 9.5 °F 15.8 °F 80% 29.77 in 1.5 mi West 11.5 mph 20.7 mph 0.00 in Snow Light Snow
3:02 PM 19.4 °F 6.0 °F 15.8 °F 86% 29.78 in 0.5 mi West 13.8 mph 19.6 mph 0.00 in Snow Snow
3:09 PM 19.4 °F 7.9 °F 15.8 °F 86% 29.77 in 0.2 mi West 10.4 mph 20.7 mph 0.00 in Fog , Snow Light Snow
3:14 PM 19.4 °F 7.2 °F 15.8 °F 86% 29.77 in 1.0 mi West 11.5 mph 18.4 mph 0.00 in Snow Light Snow
3:17 PM 21.2 °F 9.5 °F 15.8 °F 80% 29.77 in 3.0 mi West 11.5 mph - 0.00 in Snow Light Snow
3:26 PM 21.2 °F 6.8 °F 15.8 °F 80% 29.77 in 2.0 mi West 17.3 mph 20.7 mph 0.00 in Snow Light Snow
3:38 PM 21.2 °F 6.8 °F 14.0 °F 74% 29.77 in 5.0 mi West 17.3 mph 23.0 mph 0.00 in Snow Light Snow
3:53 PM 21.0 °F 8.1 °F 14.0 °F 74% 29.84 in 8.0 mi West 13.8 mph 21.9 mph 0.00 in   Mostly Cloudy
4:13 PM 21.2 °F 10.9 °F 14.0 °F 74% 29.78 in 1.8 mi WNW 9.2 mph 19.6 mph 0.00 in Snow Light Snow
4:23 PM 21.2 °F 8.9 °F 14.0 °F 74% 29.78 in 3.0 mi West 12.7 mph 19.6 mph 0.00 in Snow Light Snow
4:45 PM 19.4 °F 6.6 °F 14.0 °F 80% 29.78 in 1.8 mi West 12.7 mph 23.0 mph 0.00 in Snow Light Snow
4:51 PM 21.2 °F 9.5 °F 15.8 °F 80% 29.78 in 2.5 mi West 11.5 mph 19.6 mph 0.00 in Snow Light Snow
4:53 PM 21.9 °F 8.7 °F 15.1 °F 75% 29.84 in 4.0 mi West 15.0 mph 20.7 mph 0.00 in Snow Light Snow
5:53 PM 19.9 °F 5.7 °F 12.9 °F 74% 29.86 in 5.0 mi West 16.1 mph 21.9 mph 0.00 in Snow Light Snow
6:12 PM 19.4 °F 5.5 °F 14.0 °F 80% 29.79 in 2.5 mi West 15.0 mph - 0.00 in Snow Light Snow
6:23 PM 19.4 °F 7.2 °F 14.0 °F 80% 29.79 in 3.0 mi West 11.5 mph - 0.00 in Snow Light Snow
6:30 PM 19.4 °F 4.5 °F 15.8 °F 86% 29.79 in 1.8 mi WSW 17.3 mph - 0.00 in Snow Light Snow
6:53 PM 19.9 °F 7.9 °F 16.0 °F 85% 29.86 in 1.0 mi West 11.5 mph - 0.00 in Snow Light Snow
7:08 PM 19.4 °F 6.6 °F 15.8 °F 86% 29.79 in 0.8 mi WSW 12.7 mph - 0.00 in Snow Light Snow
7:28 PM 19.4 °F 6.0 °F 15.8 °F 86% 29.79 in 1.0 mi West 13.8 mph - 0.00 in Snow Light Snow
7:32 PM 19.4 °F 6.6 °F 15.8 °F 86% 29.80 in 0.8 mi West 12.7 mph - 0.00 in Snow Light Snow
7:53 PM 19.0 °F 6.8 °F 17.1 °F 92% 29.87 in 0.8 mi West 11.5 mph - 0.00 in Snow Light Snow
8:07 PM 19.4 °F 8.6 °F 15.8 °F 86% 29.80 in 1.8 mi West 9.2 mph - 0.00 in Snow Light Snow
8:14 PM 19.4 °F 9.5 °F 15.8 °F 86% 29.80 in 2.0 mi West 8.1 mph - 0.00 in Snow Light Snow
8:23 PM 19.4 °F 8.6 °F 17.6 °F 93% 29.80 in 1.5 mi West 9.2 mph - 0.00 in Snow Light Snow
8:53 PM 19.0 °F 6.1 °F 17.1 °F 92% 29.87 in 1.0 mi West 12.7 mph 18.4 mph 0.00 in Snow Light Snow
9:35 PM 19.4 °F 6.6 °F 15.8 °F 86% 29.79 in 1.0 mi West 12.7 mph - 0.00 in Snow Light Snow
9:44 PM 19.4 °F 7.9 °F 17.6 °F 93% 29.79 in 0.8 mi West 10.4 mph - 0.01 in Snow Light Snow
9:53 PM 19.0 °F 9.0 °F 17.1 °F 92% 29.86 in 0.8 mi West 8.1 mph - 0.01 in Snow Light Snow
10:02 PM 19.4 °F 7.9 °F 17.6 °F 93% 29.78 in 1.0 mi West 10.4 mph 18.4 mph 0.00 in Snow Light Snow
10:24 PM 19.4 °F 8.6 °F 17.6 °F 93% 29.78 in 0.8 mi West 9.2 mph - 0.00 in Snow Light Snow
10:53 PM 19.9 °F 10.1 °F 17.1 °F 89% 29.84 in 1.0 mi West 8.1 mph - 0.00 in Snow Light Snow
11:24 PM 19.4 °F 7.2 °F 17.6 °F 93% 29.77 in 1.2 mi West 11.5 mph 19.6 mph 0.01 in Snow Light Snow
11:42 PM 19.4 °F 11.5 °F 17.6 °F 93% 29.76 in 1.2 mi West 5.8 mph - 0.01 in Snow Light Snow
11:53 PM 19.9 °F 10.1 °F 17.1 °F 89% 29.83 in 1.0 mi West 8.1 mph - 0.01 in Snow Light Snow